TimeCDT,TemperatureF,Dew PointF,Humidity,Sea Level PressureIn,VisibilityMPH,Wind Direction,Wind SpeedMPH,Gust SpeedMPH,PrecipitationIn,Events,Conditions,WindDirDegrees,DateUTC
12:52 AM,77.0,64.0,64,29.78,10.0,South,12.7,23.0,N/A,,Clear,180,2012-10-22 05:52:00
1:52 AM,75.9,64.0,67,29.78,10.0,South,15.0,-,N/A,,Clear,180,2012-10-22 06:52:00
2:52 AM,73.9,64.9,73,29.79,10.0,South,16.1,-,N/A,,Clear,180,2012-10-22 07:52:00
3:52 AM,73.0,64.9,76,29.79,10.0,South,15.0,23.0,N/A,,Clear,180,2012-10-22 08:52:00
5:52 AM,71.1,64.9,81,29.82,10.0,South,16.1,-,N/A,,Clear,180,2012-10-22 10:52:00
6:50 AM,69.8,66.2,88,29.94,10.0,South,5.8,-,N/A,,Mostly Cloudy,170,2012-10-22 11:50:00
7:05 AM,69.8,64.4,83,29.93,10.0,Calm,Calm,-,N/A,,Scattered Clouds,0,2012-10-22 12:05:00
8:52 AM,70.0,66.0,87,29.90,10.0,SSE,10.4,-,0.00,,Overcast,150,2012-10-22 13:52:00
9:52 AM,70.0,66.0,87,29.93,10.0,SSE,6.9,-,N/A,,Mostly Cloudy,150,2012-10-22 14:52:00
10:23 AM,69.8,60.8,73,30.03,10.0,NNW,15.0,-,0.00,Rain,Light Rain,340,2012-10-22 15:23:00
10:32 AM,68.0,60.8,78,30.03,10.0,North,10.4,-,0.00,Rain,Light Rain,350,2012-10-22 15:32:00
12:32 PM,66.2,62.6,88,30.04,4.0,SSW,5.8,-,N/A,Rain-Thunderstorm,Light Thunderstorms and Rain,200,2012-10-22 17:32:00
12:45 PM,64.4,62.6,94,30.00,1.8,ESE,16.1,-,N/A,Rain-Thunderstorm,Heavy Thunderstorms and Rain,120,2012-10-22 17:45:00
12:52 PM,64.9,64.0,97,29.92,1.8,ESE,19.6,-,N/A,Rain-Thunderstorm,Thunderstorms and Rain,120,2012-10-22 17:52:00
12:56 PM,64.4,64.4,100,29.98,3.0,ESE,21.9,-,N/A,Rain-Thunderstorm,Thunderstorms and Rain,120,2012-10-22 17:56:00
1:22 PM,64.4,64.4,100,29.97,1.2,SE,19.6,-,N/A,Rain-Thunderstorm,Thunderstorms and Rain,130,2012-10-22 18:22:00
1:33 PM,64.4,64.4,100,29.96,3.0,ESE,10.4,-,N/A,Rain-Thunderstorm,Thunderstorms and Rain,110,2012-10-22 18:33:00
1:52 PM,66.9,64.9,93,29.90,10.0,SE,15.0,-,N/A,Rain-Thunderstorm,Thunderstorms and Rain,130,2012-10-22 18:52:00
2:33 PM,68.0,66.2,94,29.94,10.0,SE,15.0,-,0.01,Rain,Light Rain,130,2012-10-22 19:33:00
3:52 PM,73.0,68.0,84,29.85,10.0,SSE,17.3,-,0.00,,Partly Cloudy,150,2012-10-22 20:52:00
4:52 PM,75.0,66.9,76,29.84,10.0,SE,15.0,-,N/A,,Clear,140,2012-10-22 21:52:00
6:52 PM,72.0,66.9,84,29.83,10.0,SSE,9.2,-,N/A,,Clear,150,2012-10-22 23:52:00
8:52 PM,70.0,64.9,84,29.84,10.0,North,-9999.0,-,N/A,,Clear,0,2012-10-23 01:52:00
9:52 PM,71.1,61.0,70,29.84,10.0,SE,9.2,-,N/A,,Clear,140,2012-10-23 02:52:00
11:52 PM,71.1,63.0,75,29.85,10.0,SSE,17.3,25.3,N/A,,Clear,160,2012-10-23 04:52:00